GW4757 Weather Reports


time (UTC)temp
F
wind
direction
speed
knots
gust
knots
rain 1hr
in
rain 24hr
in
rain mn
in
humidity
%
barometer
mb
20260906071555 69 0 0.0 0.0 0.00 0.27 0.00 97 1011.7
20260906070047 69 0 0.0 0.0 0.00 0.27 0.00 96 1011.8
20260906064554 69 0 0.0 0.0 0.00 0.27 0.00 96 1012.3
20260906063058 69 0 0.0 0.0 0.00 0.27 0.00 96 1012.5
20260906061606 69 0 0.0 0.0 0.00 0.27 0.00 96 1012.9
20260906060055 69 0 0.0 0.0 0.00 0.27 0.00 96 1012.9
20260906054551 69 0 0.0 0.0 0.00 0.27 0.00 97 1012.8
20260906053056 69 0 0.0 0.0 0.00 0.27 0.00 97 1013.1
20260906051602 69 0 0.0 0.0 0.00 0.27 0.00 96 1013.2
20260906050056 70 0 0.0 0.0 0.00 0.27 0.00 96 1013.3
20260906044551 70 0 0.0 0.0 0.00 0.27 0.00 96 1013.3
20260906043055 70 0 0.0 0.0 0.00 0.27 0.00 97 1013.3
20260906041553 70 0 0.0 0.0 0.00 0.27 0.00 96 1013.6
20260906034558 71 0 0.0 0.0 0.00 0.27 0.27 96 1013.5
20260906033057 71 0 0.0 0.0 0.00 0.27 0.27 96 1013.6
20260906031558 71 0 0.0 0.0 0.00 0.27 0.27 95 1013.7
20260906030057 72 0 0.0 0.0 0.00 0.27 0.27 94 1013.6
20260906024556 73 0 0.0 0.0 0.00 0.27 0.27 95 1013.4
20260906023051 72 0 0.0 0.0 0.00 0.27 0.27 95 1013.3
20260906021550 72 0 0.0 0.9 0.00 0.27 0.27 95 1013.3
20260906014554 72 0 0.0 0.0 0.00 0.27 0.27 95 1013.1
20260906013051 73 0 0.0 0.0 0.00 0.27 0.27 94 1013.3
20260906011554 73 0 0.9 1.7 0.00 0.27 0.27 94 1013.0
20260906010100 73 0 0.0 0.0 0.00 0.27 0.27 93 1012.8
20260906004551 74 0 0.0 0.0 0.00 0.27 0.27 92 1012.8
20260906003058 75 0 0.0 0.0 0.00 0.27 0.27 92 1012.5
20260906001557 76 0 0.0 0.0 0.00 0.27 0.27 89 1012.1
20260906000100 76 0 0.0 0.0 0.00 0.27 0.27 88 1012.1
20260905234553 77 0 0.0 0.0 0.00 0.27 0.27 85 1012.0
20260905233059 78 0 0.0 0.0 0.00 0.27 0.27 84 1011.8
20260905231554 79 0 0.0 0.9 0.00 0.27 0.27 81 1011.9
20260905230100 81 0 0.0 0.0 0.00 0.27 0.27 79 1011.8
20260905224608 82 109 0.0 1.7 0.00 0.27 0.27 77 1011.8
20260905223059 82 0 0.0 0.9 0.00 0.27 0.27 78 1011.9
20260905221606 83 128 0.0 1.7 0.00 0.27 0.27 72 1011.9
20260905220108 83 0 0.0 2.6 0.00 0.27 0.27 73 1011.9
20260905214602 83 0 0.0 0.9 0.00 0.27 0.27 74 1012.0
20260905213101 83 0 0.0 2.6 0.00 0.27 0.27 76 1012.4
20260905211627 83 91 0.0 1.7 0.00 0.27 0.27 76 1012.4
20260905210120 83 302 0.0 1.7 0.00 0.27 0.27 83 1012.2
20260905204558 81 0 0.0 0.9 0.00 0.27 0.27 84 1012.1
20260905203116 80 0 0.0 1.7 0.00 0.27 0.27 84 1012.4
20260905201600 80 0 0.0 0.9 0.00 0.27 0.27 87 1012.4
20260905194556 80 0 0.0 0.0 0.00 0.27 0.27 87 1012.8
20260905193059 80 0 0.0 1.7 0.00 0.27 0.27 89 1012.6
20260905191556 79 0 0.0 1.7 0.00 0.27 0.27 91 1012.6
20260905190055 78 0 0.0 0.9 0.00 0.27 0.27 93 1012.4
20260905184603 77 0 0.0 0.0 0.01 0.27 0.27 95 1012.0
20260905183059 76 0 0.0 0.0 0.26 0.27 0.27 94 1012.6
20260905181608 75 0 0.0 0.0 0.27 0.27 0.27 92 1013.3
20260905180049 77 0 0.0 0.0 0.27 0.27 0.27 91 1013.2
20260905174553 80 87 1.7 10.4 0.26 0.26 0.26 78 1014.5
20260905173057 89 0 0.0 2.6 0.01 0.01 0.01 69 1014.4
20260905171555 95 213 0.9 3.5 0.00 0.00 0.00 57 1013.6
20260905170104 96 98 0.9 5.2 0.00 0.00 0.00 52 1013.8
20260905164556 96 248 0.0 4.3 0.00 0.00 0.00 52 1014.0
20260905163055 96 325 0.9 5.2 0.00 0.00 0.00 52 1014.1
20260905161548 96 140 1.7 7.8 0.00 0.00 0.00 52 1014.2
20260905160132 95 133 0.9 4.3 0.00 0.00 0.00 53 1014.4
20260905154554 95 111 1.7 5.2 0.00 0.00 0.00 53 1014.4
20260905153054 94 107 2.6 7.0 0.00 0.00 0.00 54 1014.3
20260905151557 94 0 0.0 5.2 0.00 0.00 0.00 57 1014.3
20260905150055 94 240 0.0 3.5 0.00 0.00 0.00 59 1014.2
20260905144555 93 0 0.9 5.2 0.00 0.00 0.00 58 1014.4
20260905143056 94 299 0.0 1.7 0.00 0.00 0.00 60 1014.5
20260905141558 93 132 0.0 1.7 0.00 0.00 0.00 62 1014.5
20260905140055 91 152 0.0 1.7 0.00 0.00 0.00 62 1014.4
20260905134601 90 154 0.0 1.7 0.00 0.00 0.00 66 1014.4
20260905133051 88 0 0.0 0.0 0.00 0.00 0.00 71 1014.6
20260905131602 86 0 0.0 0.0 0.00 0.00 0.00 75 1014.8
20260905130052 82 0 0.0 0.0 0.00 0.00 0.00 82 1014.9
20260905124558 78 0 0.0 0.0 0.00 0.00 0.00 90 1014.9
20260905123055 73 0 0.0 0.0 0.00 0.00 0.00 97 1014.9
20260905121552 70 0 0.0 0.0 0.00 0.00 0.00 97 1014.6
20260905120116 69 0 0.0 0.0 0.00 0.00 0.00 97 1014.5
20260905114547 68 0 0.0 0.0 0.00 0.00 0.00 97 1014.5
20260905113055 68 0 0.0 0.0 0.00 0.00 0.00 97 1014.3
20260905111608 68 0 0.0 0.0 0.00 0.00 0.00 97 1014.2
20260905110056 68 0 0.0 0.0 0.00 0.00 0.00 97 1014.0
20260905104556 68 0 0.0 0.0 0.00 0.00 0.00 96 1013.9
20260905103056 68 0 0.0 0.0 0.00 0.00 0.00 96 1013.9
20260905101556 68 0 0.0 0.0 0.00 0.00 0.00 96 1013.8
20260905100056 68 0 0.0 0.0 0.00 0.00 0.00 96 1013.8
20260905094556 69 0 0.0 0.0 0.00 0.00 0.00 96 1013.6
20260905093053 69 0 0.0 0.0 0.00 0.00 0.00 95 1013.7
20260905091615 69 0 0.0 0.0 0.00 0.00 0.00 95 1013.6
20260905090118 69 0 0.0 0.0 0.00 0.00 0.00 95 1013.6
20260905084607 69 0 0.0 0.0 0.00 0.00 0.00 95 1013.8
20260905083049 69 0 0.0 0.0 0.00 0.00 0.00 95 1013.9
20260905081556 70 0 0.0 0.0 0.00 0.00 0.00 95 1014.0
20260905080056 70 0 0.0 0.0 0.00 0.00 0.00 94 1014.3
20260905074556 70 0 0.0 0.0 0.00 0.00 0.00 94 1014.4
20260905073103 71 0 0.0 0.0 0.00 0.00 0.00 94 1014.3